| time (UTC) | temp C | wind direction | speed KPH | gust KPH | rain 1hr cm | rain 24hr cm | rain mn cm | humidity % | barometer mb |
| 20260503053102 | 14 | 350 | 4.8 | 9.7 | 0.00 | 0.00 | 0.00 | 65 | 1018.1 |
| 20260503052038 | 13 | 350 | 4.8 | 8.0 | 0.00 | 0.00 | 0.00 | 66 | 1018.0 |
| 20260503051102 | 13 | 4 | 4.8 | 8.0 | 0.00 | 0.00 | 0.00 | 67 | 1018.0 |
| 20260503050039 | 12 | 332 | 3.2 | 6.4 | 0.00 | 0.00 | 0.00 | 67 | 1018.0 |
| 20260503045102 | 12 | 350 | 4.8 | 8.0 | 0.00 | 0.00 | 0.00 | 68 | 1018.1 |
| 20260503044038 | 12 | 325 | 6.4 | 8.0 | 0.00 | 0.00 | 0.00 | 68 | 1018.1 |
| 20260503042038 | 12 | 332 | 4.8 | 8.0 | 0.00 | 0.00 | 0.00 | 67 | 1018.0 |
| 20260503041103 | 12 | 344 | 4.8 | 6.4 | 0.00 | 0.00 | 0.00 | 67 | 1018.0 |
| 20260503040750 | 12 | 320 | 6.4 | 11.3 | 0.00 | 0.00 | 0.00 | 68 | 1018.1 |
| 20260503035105 | 12 | 330 | 4.8 | 8.0 | 0.00 | 0.00 | 0.00 | 68 | 1018.0 |
| 20260503034039 | 12 | 332 | 6.4 | 8.0 | 0.00 | 0.00 | 0.00 | 68 | 1018.0 |
| 20260503033102 | 12 | 344 | 4.8 | 8.0 | 0.00 | 0.00 | 0.00 | 68 | 1017.9 |
| 20260503032039 | 12 | 337 | 6.4 | 9.7 | 0.00 | 0.00 | 0.00 | 67 | 1018.0 |
| 20260503031103 | 12 | 322 | 4.8 | 8.0 | 0.00 | 0.00 | 0.00 | 65 | 1018.0 |
| 20260503030038 | 12 | 352 | 4.8 | 8.0 | 0.00 | 0.00 | 0.00 | 65 | 1018.0 |
| 20260503025102 | 12 | 339 | 4.8 | 8.0 | 0.00 | 0.00 | 0.00 | 65 | 1018.1 |
| 20260503024038 | 12 | 328 | 4.8 | 8.0 | 0.00 | 0.00 | 0.00 | 65 | 1018.2 |
| 20260503023102 | 12 | 333 | 4.8 | 8.0 | 0.00 | 0.00 | 0.00 | 64 | 1018.3 |
| 20260503022039 | 12 | 319 | 4.8 | 8.0 | 0.00 | 0.00 | 0.00 | 64 | 1018.3 |
| 20260503021102 | 13 | 327 | 4.8 | 8.0 | 0.00 | 0.00 | 0.00 | 63 | 1018.3 |
| 20260503020751 | 13 | 336 | 4.8 | 8.0 | 0.00 | 0.00 | 0.00 | 62 | 1018.3 |
| 20260503015102 | 13 | 337 | 4.8 | 9.7 | 0.00 | 0.00 | 0.00 | 62 | 1018.3 |
| 20260503014038 | 13 | 349 | 6.4 | 8.0 | 0.00 | 0.00 | 0.00 | 61 | 1018.4 |
| 20260503012038 | 13 | 347 | 4.8 | 8.0 | 0.00 | 0.00 | 0.00 | 61 | 1018.5 |
| 20260503011102 | 13 | 333 | 4.8 | 8.0 | 0.00 | 0.00 | 0.00 | 61 | 1018.6 |
| 20260503010038 | 13 | 354 | 4.8 | 8.0 | 0.00 | 0.00 | 0.00 | 61 | 1018.7 |
| 20260503005102 | 13 | 344 | 4.8 | 8.0 | 0.00 | 0.00 | 0.00 | 62 | 1018.8 |
| 20260503004039 | 13 | 348 | 3.2 | 6.4 | 0.00 | 0.00 | 0.00 | 61 | 1018.8 |
| 20260503003102 | 13 | 318 | 3.2 | 8.0 | 0.00 | 0.00 | 0.00 | 60 | 1019.0 |
| 20260503002039 | 13 | 344 | 3.2 | 8.0 | 0.00 | 0.00 | 0.00 | 59 | 1019.1 |
| 20260503001103 | 13 | 324 | 4.8 | 8.0 | 0.00 | 0.00 | 0.00 | 58 | 1019.1 |
| 20260503000752 | 14 | 338 | 1.6 | 6.4 | 0.00 | 0.00 | 0.00 | 56 | 1019.2 |
| 20260502235103 | 14 | 314 | 3.2 | 6.4 | 0.00 | 0.00 | 0.00 | 56 | 1019.3 |
| 20260502234038 | 14 | 342 | 3.2 | 8.0 | 0.00 | 0.00 | 0.00 | 56 | 1019.4 |
| 20260502233102 | 14 | 355 | 1.6 | 6.4 | 0.00 | 0.00 | 0.00 | 56 | 1019.5 |
| 20260502232038 | 15 | 343 | 3.2 | 8.0 | 0.00 | 0.00 | 0.00 | 56 | 1019.6 |
| 20260502231102 | 15 | 0 | 0.0 | 4.8 | 0.00 | 0.00 | 0.00 | 56 | 1019.6 |
| 20260502230038 | 14 | 340 | 0.0 | 3.2 | 0.00 | 0.00 | 0.00 | 56 | 1019.6 |
| 20260502224038 | 15 | 315 | 0.0 | 4.8 | 0.00 | 0.00 | 0.00 | 55 | 1019.7 |
| 20260502223103 | 15 | 0.0 | 3.2 | 0.00 | 0.00 | 0.00 | 55 | 1019.7 | |
| 20260502222039 | 15 | 0.0 | 3.2 | 0.00 | 0.00 | 0.00 | 55 | 1019.7 | |
| 20260502221102 | 15 | 315 | 0.0 | 4.8 | 0.00 | 0.00 | 0.00 | 53 | 1019.7 |
| 20260502220751 | 15 | 0.0 | 3.2 | 0.00 | 0.00 | 0.00 | 53 | 1019.7 | |
| 20260502215102 | 15 | 0.0 | 1.6 | 0.00 | 0.00 | 0.00 | 53 | 1019.8 | |
| 20260502214038 | 15 | 0.0 | 1.6 | 0.00 | 0.00 | 0.00 | 53 | 1019.7 | |
| 20260502213102 | 15 | 0.0 | 1.6 | 0.00 | 0.00 | 0.00 | 53 | 1019.8 | |
| 20260502212038 | 15 | 0.0 | 3.2 | 0.00 | 0.00 | 0.00 | 53 | 1019.9 | |
| 20260502204038 | 16 | 0.0 | 0.0 | 0.00 | 0.00 | 0.00 | 50 | 1019.9 | |
| 20260502203102 | 16 | 0.0 | 0.0 | 0.00 | 0.00 | 0.00 | 49 | 1019.9 | |
| 20260502202039 | 16 | 0.0 | 1.6 | 0.00 | 0.00 | 0.00 | 47 | 1019.8 | |
| 20260502201102 | 17 | 0.0 | 0.0 | 0.00 | 0.00 | 0.00 | 45 | 1019.8 | |
| 20260502200750 | 17 | 0.0 | 0.0 | 0.00 | 0.00 | 0.00 | 45 | 1019.7 | |
| 20260502195102 | 17 | 0.0 | 0.0 | 0.00 | 0.00 | 0.00 | 42 | 1019.6 | |
| 20260502194038 | 17 | 0.0 | 0.0 | 0.00 | 0.00 | 0.00 | 42 | 1019.7 | |
| 20260502193102 | 18 | 0.0 | 0.0 | 0.00 | 0.00 | 0.00 | 42 | 1019.6 | |
| 20260502192038 | 18 | 0.0 | 0.0 | 0.00 | 0.00 | 0.00 | 41 | 1019.6 | |
| 20260502191103 | 18 | 0.0 | 0.0 | 0.00 | 0.00 | 0.00 | 38 | 1019.6 | |
| 20260502190038 | 18 | 0.0 | 0.0 | 0.00 | 0.00 | 0.00 | 37 | 1019.5 | |
| 20260502185102 | 19 | 0.0 | 0.0 | 0.00 | 0.00 | 0.00 | 36 | 1019.5 | |
| 20260502184038 | 19 | 0.0 | 0.0 | 0.00 | 0.00 | 0.00 | 34 | 1019.4 | |
| 20260502183102 | 20 | 0.0 | 0.0 | 0.00 | 0.00 | 0.00 | 34 | 1019.4 | |
| 20260502182038 | 20 | 0.0 | 0.0 | 0.00 | 0.00 | 0.00 | 32 | 1019.4 | |
| 20260502181102 | 21 | 0.0 | 0.0 | 0.00 | 0.00 | 0.00 | 31 | 1019.4 | |
| 20260502180751 | 21 | 0.0 | 0.0 | 0.00 | 0.00 | 0.00 | 29 | 1019.3 | |
| 20260502164038 | 22 | 180 | 0.0 | 4.8 | 0.00 | 0.00 | 0.00 | 24 | 1019.3 |
| 20260502163102 | 22 | 161 | 1.6 | 6.4 | 0.00 | 0.00 | 0.00 | 25 | 1019.4 |
| 20260502162038 | 22 | 142 | 1.6 | 6.4 | 0.00 | 0.00 | 0.00 | 24 | 1019.5 |
| 20260502161103 | 22 | 225 | 1.6 | 8.0 | 0.00 | 0.00 | 0.00 | 24 | 1019.6 |
| 20260502160750 | 22 | 138 | 1.6 | 6.4 | 0.00 | 0.00 | 0.00 | 23 | 1019.7 |
| 20260502152038 | 22 | 270 | 0.0 | 6.4 | 0.00 | 0.00 | 0.00 | 23 | 1020.0 |
| 20260502151102 | 22 | 205 | 1.6 | 9.7 | 0.00 | 0.00 | 0.00 | 22 | 1020.1 |
| 20260502123102 | 21 | 126 | 3.2 | 9.7 | 0.00 | 0.00 | 0.00 | 26 | 1022.3 |
| 20260502121103 | 21 | 266 | 3.2 | 6.4 | 0.00 | 0.00 | 0.00 | 27 | 1022.5 |
| 20260502120750 | 21 | 189 | 8.0 | 14.5 | 0.00 | 0.00 | 0.00 | 27 | 1022.7 |
| 20260502115103 | 21 | 146 | 4.8 | 12.9 | 0.00 | 0.00 | 0.00 | 29 | 1022.8 |
| 20260502114038 | 21 | 155 | 6.4 | 14.5 | 0.00 | 0.00 | 0.00 | 30 | 1022.9 |
| 20260502110038 | 20 | 216 | 3.2 | 11.3 | 0.00 | 0.00 | 0.00 | 32 | 1023.5 |
| 20260502105102 | 19 | 157 | 3.2 | 8.0 | 0.00 | 0.00 | 0.00 | 34 | 1023.7 |
| 20260502104039 | 20 | 169 | 4.8 | 8.0 | 0.00 | 0.00 | 0.00 | 34 | 1023.9 |
| 20260502103103 | 20 | 215 | 8.0 | 14.5 | 0.00 | 0.00 | 0.00 | 34 | 1024.0 |
| 20260502102039 | 19 | 22 | 3.2 | 6.4 | 0.00 | 0.00 | 0.00 | 36 | 1024.0 |
| 20260502101102 | 19 | 178 | 6.4 | 9.7 | 0.00 | 0.00 | 0.00 | 36 | 1024.2 |
| 20260502100750 | 19 | 175 | 4.8 | 9.7 | 0.00 | 0.00 | 0.00 | 37 | 1024.3 |
| 20260502091102 | 18 | 180 | 4.8 | 6.4 | 0.00 | 0.00 | 0.00 | 40 | 1024.9 |
| 20260502071103 | 16 | 6 | 1.6 | 3.2 | 0.00 | 0.00 | 0.00 | 52 | 1025.2 |
| 20260502070038 | 16 | 26 | 1.6 | 3.2 | 0.00 | 0.00 | 0.00 | 54 | 1025.3 |
| 20260502065103 | 15 | 9 | 1.6 | 4.8 | 0.00 | 0.00 | 0.00 | 56 | 1025.3 |
| 20260502064038 | 15 | 330 | 3.2 | 8.0 | 0.00 | 0.00 | 0.00 | 56 | 1025.3 |
| 20260502063102 | 14 | 352 | 3.2 | 8.0 | 0.00 | 0.00 | 0.00 | 59 | 1025.2 |
| 20260502062038 | 13 | 341 | 3.2 | 8.0 | 0.00 | 0.00 | 0.00 | 59 | 1025.2 |
| 20260502061102 | 13 | 323 | 3.2 | 8.0 | 0.00 | 0.00 | 0.00 | 60 | 1025.2 |
| 20260502060751 | 13 | 350 | 4.8 | 8.0 | 0.00 | 0.00 | 0.00 | 62 | 1025.2 |
| 20260502055102 | 12 | 6 | 4.8 | 9.7 | 0.00 | 0.00 | 0.00 | 64 | 1025.2 |
| 20260502054038 | 12 | 349 | 6.4 | 11.3 | 0.00 | 0.00 | 0.00 | 66 | 1025.3 |